This demonstration page uses our WeatherBlox Daily Observations layout. Learn more.

Hourly Observations for June 18, 2019

Temp ( °F °C ) Dew Point ( °F °C ) Humidity (%) Winds ( mph kmh ) Pressure ( in mb ) Visibility ( mi km ) Precip ( " mm )
12:15 am 00:15 Partly Cloudy 70 21 70 21 100 100 Calm 30 1016 10 16.09344 0 0
12:35 am 00:35 Partly Cloudy 70 21 70 21 100 100 Calm 30 1016 10 16.09344 0 0
12:55 am 00:55 Mostly Cloudy 70 21 70 21 100 100 Calm 30 1016 10 16.09344 0 0
1:15 am 01:15 Partly Cloudy 70 21 70 21 100 100 Calm 30 1016 10 16.09344 0 0
1:35 am 01:35 Partly Cloudy 70 21 70 21 100 100 S 3 6 29.97 1015 10 16.09344 0 0
1:55 am 01:55 Partly Cloudy 70 21 70 21 100 100 Calm 29.97 1015 10 16.09344 0 0
2:15 am 02:15 Clear 68 20 68 20 100 100 Calm 29.97 1015 10 16.09344 0 0
2:35 am 02:35 Clear 68 20 68 20 100 100 Calm 29.97 1015 10 16.09344 0 0
2:55 am 02:55 Clear 68 20 68 20 100 100 Calm 29.97 1015 10 16.09344 0 0
3:15 am 03:15 Clear 68 20 68 20 100 100 Calm 29.94 1014 10 16.09344 0 0
3:35 am 03:35 Partly Cloudy 68 20 68 20 100 100 SSW 3 6 29.94 1014 10 16.09344 0 0
3:55 am 03:55 Mostly Cloudy 68 20 68 20 100 100 Calm 29.94 1014 10 16.09344 0 0
4:15 am 04:15 Cloudy 68 20 68 20 100 100 Calm 29.94 1014 7 11.265408 0 0
4:35 am 04:35 Mostly Cloudy 68 20 68 20 100 100 Calm 29.94 1014 7 11.265408 0 0
4:55 am 04:55 Partly Cloudy 68 20 68 20 100 100 Calm 29.94 1014 7 11.265408 0 0
5:15 am 05:15 Clear 68 20 68 20 100 100 Calm 29.94 1014 10 16.09344 0 0
5:35 am 05:35 Clear 68 20 68 20 100 100 Calm 29.94 1014 5 8.04672 0 0
5:55 am 05:55 Sunny 66 19 66 19 100 100 Calm 29.94 1014 10 16.09344 0 0
6:15 am 06:15 Mostly Cloudy 66 19 66 19 100 100 Calm 29.94 1014 2 3.218688 0 0
6:35 am 06:35 Cloudy 66 19 66 19 100 100 Calm 29.94 1014 4 6.437376 0 0
6:55 am 06:55 Cloudy 66 19 66 19 100 100 S 3 6 29.94 1014 2 3.218688 0 0
7:15 am 07:15 Mostly Cloudy 68 20 68 20 100 100 Calm 29.94 1014 3 4.828032 0 0
7:35 am 07:35 Mostly Cloudy 68 20 68 20 100 100 Calm 29.94 1014 10 16.09344 0 0
7:55 am 07:55 Cloudy 68 20 68 20 100 100 Calm 29.94 1014 10 16.09344 0 0
8:15 am 08:15 Cloudy 68 20 68 20 100 100 Calm 29.94 1014 5 8.04672 0 0
8:35 am 08:35 Cloudy 68 20 68 20 100 100 Calm 29.97 1015 7 11.265408 0 0
8:55 am 08:55 Cloudy 70 21 70 21 100 100 NW 3 6 29.97 1015 10 16.09344 0 0
9:15 am 09:15 Cloudy 70 21 70 21 100 100 Calm 29.97 1015 10 16.09344 0 0
9:35 am 09:35 Partly Cloudy 72 22 70 21 94 94 Calm 29.97 1015 10 16.09344 0 0
9:55 am 09:55 Partly Cloudy 75 24 70 21 83 83 Calm 29.94 1014 10 16.09344 0 0
10:15 am 10:15 Partly Cloudy 73 23 70 21 89 89 Calm 29.94 1014 10 16.09344 0 0
10:35 am 10:35 Partly Cloudy 75 24 72 22 89 89 Calm 29.94 1014 10 16.09344 0 0
10:55 am 10:55 Partly Cloudy 75 24 72 22 89 89 SSE 7 11 29.97 1015 10 16.09344 0 0
11:15 am 11:15 Partly Cloudy 77 25 72 22 83 83 SSW 5 7 29.97 1015 10 16.09344 0 0
11:35 am 11:35 Partly Cloudy 79 26 72 22 79 79 SSW 5 7 29.97 1015 10 16.09344 0 0
11:55 am 11:55 Mostly Cloudy 81 27 72 22 74 74 W 8 13 29.97 1015 10 16.09344 0 0
12:15 pm 12:15 Mostly Cloudy 81 27 72 22 74 74 W 7 11 29.94 1014 10 16.09344 0 0
12:35 pm 12:35 Cloudy 81 27 70 21 70 70 W 10 17 29.97 1015 10 16.09344 0 0
12:55 pm 12:55 Mostly Cloudy 79 26 68 20 70 70 W 9 15 29.94 1014 10 16.09344 0 0
1:15 pm 13:15 undefined 81 27 68 20 66 66 WNW 12 19 29.94 1014 N/A 0 0
1:35 pm 13:35 undefined N/A N/A N/A undefined N/A N/A N/A 0 0
1:55 pm 13:55 Partly Cloudy 81 27 70 21 70 70 W 8 13 29.94 1014 10 16.09344 0.01 0.254
2:15 pm 14:15 Mostly Cloudy 81 27 70 21 70 70 WNW 6 9 29.94 1014 10 16.09344 0 0
2:35 pm 14:35 Mostly Cloudy 81 27 70 21 70 70 WNW 9 15 29.94 1014 10 16.09344 0 0
2:55 pm 14:55 Sunny 81 27 70 21 70 70 WNW 9 15 29.94 1014 10 16.09344 0 0
3:15 pm 15:15 Sunny 82 28 70 21 66 66 W 10 17 29.91 1013 10 16.09344 0 0
3:35 pm 15:35 Partly Cloudy 84 29 70 21 62 62 W 9 15 29.91 1013 10 16.09344 0 0
3:55 pm 15:55 Sunny 86 30 70 21 59 59 NW 7 11 29.88 1012 10 16.09344 0 0
4:15 pm 16:15 Sunny 84 29 70 21 62 62 WNW 9 15 29.91 1013 10 16.09344 0 0
4:35 pm 16:35 Sunny 84 29 70 21 62 62 WNW 10 17 29.91 1013 10 16.09344 0 0
4:55 pm 16:55 Partly Cloudy 84 29 70 21 62 62 NW 9 15 29.91 1013 10 16.09344 0 0
5:15 pm 17:15 Sunny 82 28 68 20 62 62 NW 9 15 29.91 1013 10 16.09344 0 0
5:35 pm 17:35 Sunny 82 28 70 21 66 66 NNW 7 11 29.88 1012 10 16.09344 0 0
5:55 pm 17:55 Mostly Cloudy 82 28 70 21 66 66 N 13 20 29.88 1012 10 16.09344 0 0
6:15 pm 18:15 Partly Cloudy 82 28 70 21 66 66 N 10 17 29.88 1012 10 16.09344 0 0
6:35 pm 18:35 Sunny 82 28 68 20 62 62 N 7 11 29.91 1013 10 16.09344 0 0
6:55 pm 18:55 Mostly Cloudy 81 27 68 20 66 66 Calm 29.91 1013 10 16.09344 0 0
7:15 pm 19:15 Mostly Cloudy 82 28 70 21 66 66 Calm 29.91 1013 10 16.09344 0 0
7:35 pm 19:35 Mostly Cloudy with Nearby Thunderstorms 79 26 72 22 79 79 S 8 13 29.91 1013 10 16.09344 0 0
7:55 pm 19:55 Partly Cloudy 77 25 72 22 83 83 SSE 6 9 29.91 1013 10 16.09344 0 0
8:15 pm 20:15 Mostly Cloudy 77 25 70 21 79 79 S 6 9 29.91 1013 10 16.09344 0 0
8:35 pm 20:35 Mostly Cloudy 75 24 70 21 83 83 Calm 29.91 1013 10 16.09344 0 0
8:55 pm 20:55 Mostly Cloudy 73 23 70 21 89 89 SSW 5 7 29.91 1013 10 16.09344 0 0
9:15 pm 21:15 Cloudy 73 23 72 22 94 94 WSW 6 9 29.91 1013 10 16.09344 0 0
9:35 pm 21:35 Mostly Cloudy 73 23 72 22 94 94 S 5 7 29.91 1013 10 16.09344 0 0
9:55 pm 21:55 Mostly Cloudy 72 22 72 22 100 100 S 3 6 29.91 1013 10 16.09344 0 0
10:15 pm 22:15 Mostly Cloudy 72 22 72 22 100 100 Calm 29.91 1013 10 16.09344 0 0
10:35 pm 22:35 Cloudy 72 22 72 22 100 100 S 3 6 29.91 1013 10 16.09344 0.01 0.254
10:55 pm 22:55 Mostly Cloudy 70 21 70 21 100 100 Calm 29.91 1013 10 16.09344 0.06 1.524
11:15 pm 23:15 Mostly Cloudy 70 21 70 21 100 100 Calm 29.91 1013 10 16.09344 0 0
11:35 pm 23:35 Cloudy 70 21 70 21 100 100 SE 3 6 29.91 1013 10 16.09344 0 0
11:55 pm 23:55 Cloudy 70 21 70 21 100 100 SSE 5 7 29.91 1013 10 16.09344 0 0

Powered by AerisWeather